• în Republica Moldova
  • Lista ţărilor
  • Pe 7 zile
  • Temperatura apei
  • Hartă satelitară
  • Meteo pe hartă
  • Widget-uri
  • user-avatar
    Intrare

    Meteo pe oră la Canberra

    Astăzi, 19 Februarie, Duminică

    Timp Temperatura Precipitaţii Vânt Presiune Umiditate
    00:00 +12°C° 0 mm 1 m/s 704 mmHg 69%
    01:00 +11°C° 0 mm 1 m/s 704 mmHg 73%
    02:00 +10°C° 0 mm 1 m/s 704 mmHg 76%
    03:00 +10°C° 0 mm 1 m/s 704 mmHg 80%
    04:00 +9°C° 0 mm 1 m/s 703 mmHg 84%
    05:00 +10°C° 0 mm 1 m/s 704 mmHg 78%
    06:00 +11°C° 0 mm 1 m/s 704 mmHg 73%
    07:00 +13°C° 0 mm 1 m/s 705 mmHg 67%
    08:00 +15°C° 0 mm 2 m/s 705 mmHg 55%
    09:00 +17°C° 0 mm 2 m/s 705 mmHg 43%
    10:00 +18°C° 0 mm 3 m/s 705 mmHg 28%
    11:00 +19°C° 0 mm 3 m/s 705 mmHg 26%
    12:00 +20°C° 0 mm 4 m/s 704 mmHg 24%
    13:00 +21°C° 0 mm 4 m/s 704 mmHg 23%
    14:00 +21°C° 0 mm 4 m/s 703 mmHg 23%
    15:00 +21°C° 0 mm 4 m/s 703 mmHg 23%
    16:00 +21°C° 0 mm 4 m/s 703 mmHg 24%
    17:00 +19°C° 0 mm 3 m/s 703 mmHg 28%
    18:00 +17°C° 0 mm 3 m/s 703 mmHg 33%
    19:00 +15°C° 0 mm 2 m/s 703 mmHg 37%
    20:00 +14°C° 0 mm 2 m/s 703 mmHg 42%
    21:00 +12°C° 0 mm 3 m/s 703 mmHg 47%
    22:00 +12°C° 0 mm 2 m/s 703 mmHg 51%
    23:00 +11°C° 0 mm 3 m/s 703 mmHg 56%

    Mâine, 20 Februarie, Luni

    Timp Temperatura Precipitaţii Vânt Presiune Umiditate
    00:00 +10°C° 0 mm 3 m/s 703 mmHg 62%
    01:00 +10°C° 0 mm 3 m/s 704 mmHg 68%
    02:00 +9°C° 0 mm 3 m/s 704 mmHg 70%
    03:00 +9°C° 0 mm 3 m/s 704 mmHg 72%
    04:00 +8°C° 0 mm 3 m/s 704 mmHg 74%
    05:00 +8°C° 0 mm 3 m/s 704 mmHg 70%
    06:00 +8°C° 0 mm 4 m/s 705 mmHg 66%
    07:00 +8°C° 0 mm 4 m/s 705 mmHg 62%
    08:00 +11°C° 0 mm 4 m/s 706 mmHg 53%
    09:00 +13°C° 0 mm 4 m/s 706 mmHg 44%
    10:00 +15°C° 0 mm 5 m/s 706 mmHg 35%
    11:00 +17°C° 0 mm 5 m/s 706 mmHg 32%
    12:00 +19°C° 0 mm 5 m/s 706 mmHg 29%
    13:00 +21°C° 0 mm 5 m/s 706 mmHg 26%
    14:00 +21°C° 0 mm 4 m/s 706 mmHg 25%
    15:00 +21°C° 0 mm 4 m/s 706 mmHg 25%
    16:00 +21°C° 0 mm 4 m/s 706 mmHg 24%
    17:00 +19°C° 0 mm 3 m/s 707 mmHg 31%
    18:00 +17°C° 0 mm 2 m/s 707 mmHg 37%
    19:00 +15°C° 0 mm 2 m/s 707 mmHg 43%
    20:00 +13°C° 0 mm 1 m/s 708 mmHg 47%
    21:00 +12°C° 0 mm 1 m/s 708 mmHg 51%
    22:00 +11°C° 0 mm 1 m/s 709 mmHg 55%
    23:00 +10°C° 0 mm 1 m/s 709 mmHg 57%

    Poimâine, 21 Februarie, Marţi

    Timp Temperatura Precipitaţii Vânt Presiune Umiditate
    00:00 +10°C° 0 mm 1 m/s 709 mmHg 58%
    01:00 +9°C° 0 mm 1 m/s 709 mmHg 59%
    02:00 +9°C° 0 mm 1 m/s 709 mmHg 61%
    03:00 +8°C° 0 mm 1 m/s 709 mmHg 63%
    04:00 +8°C° 0 mm 1 m/s 709 mmHg 64%
    05:00 +10°C° 0 mm 1 m/s 710 mmHg 58%
    06:00 +11°C° 0 mm 1 m/s 710 mmHg 53%
    07:00 +13°C° 0 mm 1 m/s 711 mmHg 47%
    08:00 +18°C° 0 mm 1 m/s 712 mmHg 39%
    09:00 +19°C° 0 mm 0 m/s 712 mmHg 32%
    10:00 +23°C° 0 mm 0 m/s 713 mmHg 24%
    11:00 +26°C° 0 mm 1 m/s 713 mmHg 22%
    12:00 +27°C° 0 mm 1 m/s 712 mmHg 20%
    13:00 +28°C° 0 mm 1 m/s 712 mmHg 18%
    14:00 +28°C° 0 mm 1 m/s 712 mmHg 18%
    15:00 +28°C° 0 mm 2 m/s 711 mmHg 18%
    16:00 +28°C° 0 mm 2 m/s 711 mmHg 19%
    17:00 +25°C° 0 mm 2 m/s 711 mmHg 30%
    18:00 +20°C° 0 mm 2 m/s 711 mmHg 42%
    19:00 +17°C° 0 mm 2 m/s 710 mmHg 54%
    20:00 +16°C° 0 mm 2 m/s 711 mmHg 64%
    21:00 +15°C° 0 mm 2 m/s 711 mmHg 74%
    22:00 +14°C° 0 mm 1 m/s 712 mmHg 85%
    23:00 +14°C° 0 mm 1 m/s 712 mmHg 88%

    22 Februarie, Miercuri

    Timp Temperatura Precipitaţii Vânt Presiune Umiditate
    00:00 +14°C° 0 mm 1 m/s 711 mmHg 92%
    01:00 +14°C° 0 mm 1 m/s 711 mmHg 96%
    02:00 +13°C° 0 mm 1 m/s 711 mmHg 97%
    03:00 +12°C° 0 mm 1 m/s 711 mmHg 98%
    04:00 +12°C° 0 mm 1 m/s 710 mmHg 99%
    05:00 +13°C° 0 mm 1 m/s 711 mmHg 95%
    06:00 +14°C° 0 mm 1 m/s 711 mmHg 91%
    07:00 +15°C° 0 mm 1 m/s 711 mmHg 88%
    08:00 +20°C° 0 mm 1 m/s 712 mmHg 71%
    09:00 +23°C° 0 mm 2 m/s 712 mmHg 54%
    10:00 +26°C° 0 mm 2 m/s 712 mmHg 36%
    11:00 +28°C° 0 mm 3 m/s 711 mmHg 31%
    12:00 +30°C° 0 mm 3 m/s 711 mmHg 25%
    13:00 +33°C° 0 mm 3 m/s 710 mmHg 19%
    14:00 +33°C° 0 mm 3 m/s 710 mmHg 19%
    15:00 +33°C° 0 mm 3 m/s 709 mmHg 18%
    16:00 +34°C° 0 mm 4 m/s 709 mmHg 18%
    17:00 +29°C° 0 mm 3 m/s 709 mmHg 25%
    18:00 +26°C° 0 mm 2 m/s 709 mmHg 32%
    19:00 +23°C° 0 mm 2 m/s 708 mmHg 40%
    20:00 +21°C° 0 mm 2 m/s 709 mmHg 46%
    21:00 +20°C° 0 mm 2 m/s 709 mmHg 53%
    22:00 +20°C° 0 mm 1 m/s 709 mmHg 59%
    23:00 +19°C° 0 mm 1 m/s 709 mmHg 67%

    23 Februarie, Joi

    Timp Temperatura Precipitaţii Vânt Presiune Umiditate
    00:00 +18°C° 0 mm 1 m/s 708 mmHg 75%
    01:00 +16°C° 0 mm 1 m/s 708 mmHg 83%
    02:00 +15°C° 0 mm 1 m/s 708 mmHg 85%
    03:00 +14°C° 0 mm 1 m/s 708 mmHg 88%
    04:00 +14°C° 0 mm 1 m/s 708 mmHg 90%
    05:00 +16°C° 0 mm 1 m/s 709 mmHg 81%
    06:00 +19°C° 0 mm 1 m/s 709 mmHg 72%
    07:00 +21°C° 0 mm 1 m/s 710 mmHg 63%
    08:00 +24°C° 0 mm 1 m/s 711 mmHg 51%
    09:00 +27°C° 0 mm 2 m/s 711 mmHg 38%
    10:00 +31°C° 0 mm 2 m/s 712 mmHg 25%
    11:00 +33°C° 0 mm 3 m/s 712 mmHg 22%
    12:00 +34°C° 0 mm 3 m/s 711 mmHg 18%
    13:00 +36°C° 0 mm 4 m/s 711 mmHg 15%
    14:00 +35°C° 0 mm 3 m/s 711 mmHg 16%
    15:00 +35°C° 0 mm 3 m/s 711 mmHg 17%
    16:00 +35°C° 0 mm 3 m/s 711 mmHg 18%
    17:00 +30°C° 0 mm 3 m/s 711 mmHg 31%
    18:00 +25°C° 0 mm 2 m/s 711 mmHg 45%
    19:00 +20°C° 0 mm 2 m/s 711 mmHg 59%
    20:00 +19°C° 0 mm 2 m/s 711 mmHg 68%
    21:00 +18°C° 0 mm 2 m/s 712 mmHg 77%
    22:00 +17°C° 0 mm 2 m/s 712 mmHg 86%
    23:00 +16°C° 0 mm 2 m/s 712 mmHg 87%

    24 Februarie, Vineri

    Timp Temperatura Precipitaţii Vânt Presiune Umiditate
    00:00 +16°C° 0 mm 2 m/s 712 mmHg 88%
    01:00 +16°C° 0 mm 2 m/s 712 mmHg 88%
    02:00 +16°C° 0 mm 2 m/s 712 mmHg 89%
    03:00 +16°C° 0 mm 2 m/s 712 mmHg 89%
    04:00 +15°C° 0 mm 2 m/s 712 mmHg 90%
    05:00 +16°C° 0 mm 2 m/s 712 mmHg 88%
    06:00 +18°C° 0 mm 1 m/s 713 mmHg 87%
    07:00 +18°C° 0 mm 1 m/s 713 mmHg 85%
    08:00 +19°C° 0 mm 2 m/s 714 mmHg 76%
    09:00 +21°C° 0 mm 2 m/s 714 mmHg 68%
    10:00 +24°C° 0 mm 2 m/s 714 mmHg 59%
    11:00 +26°C° 0 mm 2 m/s 714 mmHg 53%
    12:00 +28°C° 0 mm 2 m/s 713 mmHg 46%
    13:00 +29°C° 0 mm 2 m/s 713 mmHg 40%
    14:00 +29°C° 0 mm 2 m/s 713 mmHg 41%
    15:00 +29°C° 0 mm 2 m/s 712 mmHg 42%
    16:00 +28°C° 0 mm 3 m/s 712 mmHg 43%
    17:00 +26°C° 0 mm 3 m/s 712 mmHg 56%
    18:00 +22°C° 0 mm 3 m/s 712 mmHg 69%
    19:00 +19°C° 0 mm 3 m/s 712 mmHg 82%
    20:00 +18°C° 0 mm 3 m/s 712 mmHg 83%
    21:00 +18°C° 0 mm 3 m/s 713 mmHg 85%
    22:00 +18°C° 0 mm 2 m/s 713 mmHg 86%
    23:00 +17°C° 0 mm 2 m/s 713 mmHg 87%
    Arată mai mult